EW4443 Weather Reports


time (UTC)temp
F
wind
direction
speed
knots
gust
knots
rain 1hr
in
rain 24hr
in
rain mn
in
humidity
%
barometer
mb
20260503013850 90 270 0.0 0.0 0.00 0.00 0.00 15 1007.6
20260503013350 90 293 0.0 2.6 0.00 0.00 0.00 15 1007.6
20260503012851 90 293 0.0 2.6 0.00 0.00 0.00 15 1007.6
20260503012352 90 225 0.0 2.6 0.00 0.00 0.00 15 1007.6
20260503011851 90 338 0.0 2.6 0.00 0.00 0.00 15 1007.6
20260503011349 91 158 0.0 3.5 0.00 0.00 0.00 13 1007.6
20260503010850 91 158 0.9 3.5 0.00 0.00 0.00 15 1007.6
20260503010332 91 180 0.0 2.6 0.00 0.00 0.00 15 1007.6
20260503005831 91 113 0.0 2.6 0.00 0.00 0.00 15 1007.6
20260503005332 91 225 0.0 2.6 0.00 0.00 0.00 13 1007.6
20260503004831 91 158 0.0 4.3 0.00 0.00 0.00 13 1008.0
20260503004332 92 90 0.0 4.3 0.00 0.00 0.00 15 1007.6
20260503003832 92 158 0.9 3.5 0.00 0.00 0.00 13 1007.6
20260503003332 92 180 0.9 3.5 0.00 0.00 0.00 13 1007.6
20260503002831 92 180 0.0 2.6 0.00 0.00 0.00 13 1007.6
20260503002331 93 225 0.0 2.6 0.00 0.00 0.00 13 1007.6
20260503001830 93 203 0.0 3.5 0.00 0.00 0.00 13 1007.6
20260503001330 93 248 0.9 4.3 0.00 0.00 0.00 13 1007.6
20260503000831 93 225 0.9 4.3 0.00 0.00 0.00 13 1007.6
20260503000332 93 293 0.0 2.6 0.00 0.00 0.00 13 1008.0
20260503000104 93 293 0.0 3.5 0.00 0.00 0.00 13 1007.6
20260502235332 93 180 0.9 3.5 0.00 0.00 0.00 13 1008.0
20260502234832 93 158 0.9 5.2 0.00 0.00 0.00 15 1008.0
20260502234330 94 158 0.9 5.2 0.00 0.00 0.00 13 1007.6
20260502233832 94 135 0.0 3.5 0.00 0.00 0.00 13 1008.0
20260502233335 94 180 0.9 3.5 0.00 0.00 0.00 15 1008.0
20260502233330 94 338 0.9 3.5 0.00 0.00 0.00 15 1008.0
20260502232330 94 225 0.0 3.5 0.00 0.00 0.00 15 1008.0
20260502232103 94 135 0.9 4.3 0.00 0.00 0.00 13 1008.0
20260502231331 94 158 0.9 7.0 0.00 0.00 0.00 15 1008.0
20260502230832 94 180 0.9 7.0 0.00 0.00 0.00 15 1008.0
20260502230332 94 270 0.0 4.3 0.00 0.00 0.00 15 1008.0
20260502225830 94 338 0.9 5.2 0.00 0.00 0.00 15 1008.3
20260502225330 94 158 0.9 5.2 0.00 0.00 0.00 13 1008.3
20260502224830 94 45 0.9 3.5 0.00 0.00 0.00 13 1008.7
20260502224330 94 113 0.0 3.5 0.00 0.00 0.00 15 1008.3
20260502224101 94 0 0.9 7.0 0.00 0.00 0.00 15 1008.3
20260502223815 94 180 0.9 7.0 0.00 0.00 0.00 15 1008.3
20260502222813 94 113 0.9 6.1 0.00 0.00 0.00 13 1008.7
20260502222312 94 180 0.9 6.1 0.00 0.00 0.00 13 1008.3
20260502221813 94 180 0.9 5.2 0.00 0.00 0.00 15 1008.7
20260502221312 94 315 0.9 6.1 0.00 0.00 0.00 15 1008.7
20260502221042 94 158 1.7 6.1 0.00 0.00 0.00 13 1008.7
20260502220311 94 203 1.7 6.1 0.00 0.00 0.00 15 1009.0
20260502215812 94 0 0.9 6.1 0.00 0.00 0.00 15 1009.0
20260502215311 94 270 1.7 6.1 0.00 0.00 0.00 15 1009.0
20260502214812 94 225 1.7 7.8 0.00 0.00 0.00 15 1009.3
20260502214312 94 158 1.7 7.8 0.00 0.00 0.00 13 1009.3
20260502214044 94 203 1.7 7.8 0.00 0.00 0.00 15 1009.3
20260502213312 94 180 1.7 7.8 0.00 0.00 0.00 13 1009.3
20260502212816 94 135 1.7 7.0 0.00 0.00 0.00 13 1009.7
20260502212812 94 180 1.7 7.0 0.00 0.00 0.00 13 1009.7
20260502211811 94 248 1.7 8.7 0.00 0.00 0.00 12 1009.7
20260502211542 94 180 1.7 7.8 0.00 0.00 0.00 13 1009.7
20260502210810 94 248 0.9 4.3 0.00 0.00 0.00 17 1009.7
20260502210311 94 45 0.9 5.2 0.00 0.00 0.00 19 1010.0
20260502205811 93 338 0.9 7.8 0.00 0.00 0.00 19 1010.0
20260502205311 93 90 0.9 7.8 0.00 0.00 0.00 17 1010.0
20260502204811 93 180 0.0 3.5 0.00 0.00 0.00 15 1010.0
20260502204311 94 315 0.0 3.5 0.00 0.00 0.00 17 1010.0
20260502203810 94 0 0.9 3.5 0.00 0.00 0.00 17 1010.0
20260502203310 93 338 0.0 2.6 0.00 0.00 0.00 19 1010.5
20260502202814 93 0 0.9 4.3 0.00 0.00 0.00 19 1010.5
20260502202809 93 0 0.0 3.5 0.00 0.00 0.00 19 1010.5
20260502201811 92 68 0.9 4.3 0.00 0.00 0.00 17 1010.8
20260502201311 92 180 0.9 4.3 0.00 0.00 0.00 15 1010.8
20260502200813 92 225 0.9 7.8 0.00 0.00 0.00 17 1010.8
20260502200542 92 293 0.9 7.8 0.00 0.00 0.00 19 1010.5
20260502195811 92 180 0.9 4.3 0.00 0.00 0.00 17 1010.8
20260502195310 92 68 0.9 3.5 0.00 0.00 0.00 17 1011.1
20260502194810 93 180 0.9 5.2 0.00 0.00 0.00 17 1011.1
20260502194309 93 180 0.9 6.1 0.00 0.00 0.00 19 1011.1
20260502194040 93 158 0.9 7.0 0.00 0.00 0.00 20 1011.1
20260502193311 92 248 0.9 7.0 0.00 0.00 0.00 20 1011.1
20260502192811 92 0 0.9 6.1 0.00 0.00 0.00 20 1011.5
20260502192311 92 180 0.9 6.1 0.00 0.00 0.00 20 1011.1
20260502191810 92 225 0.9 6.1 0.00 0.00 0.00 20 1011.5
20260502191311 92 225 0.9 6.1 0.00 0.00 0.00 20 1011.5
20260502190810 91 203 0.0 5.2 0.00 0.00 0.00 20 1011.8
20260502190309 91 45 0.9 5.2 0.00 0.00 0.00 20 1011.8
20260502185810 92 180 0.9 7.0 0.00 0.00 0.00 20 1011.8
20260502185310 91 203 0.9 7.0 0.00 0.00 0.00 20 1011.8
20260502184811 91 23 0.9 6.1 0.00 0.00 0.00 22 1012.1
20260502184311 91 180 0.9 7.8 0.00 0.00 0.00 20 1012.1
20260502183811 91 23 0.9 7.8 0.00 0.00 0.00 20 1012.1
20260502183311 91 248 0.9 6.1 0.00 0.00 0.00 20 1012.1
20260502182810 91 338 0.9 6.1 0.00 0.00 0.00 20 1012.1
20260502182541 91 315 0.9 5.2 0.00 0.00 0.00 22 1012.5
20260502181810 91 158 0.9 3.5 0.00 0.00 0.00 22 1012.5
20260502181309 91 23 0.0 7.0 0.00 0.00 0.00 22 1012.5
20260502180809 91 225 1.7 7.0 0.00 0.00 0.00 22 1012.5
20260502180541 90 180 0.9 6.1 0.00 0.00 0.00 22 1012.5
20260502163751 86 248 0.9 8.7 0.00 0.00 0.00 25 1012.8
20260502163251 85 68 0.9 8.7 0.00 0.00 0.00 25 1012.8
20260502162757 85 203 0.9 6.1 0.00 0.00 0.00 25 1012.8
20260502162251 84 180 0.0 5.2 0.00 0.00 0.00 27 1013.3
20260502161752 84 0 0.9 5.2 0.00 0.00 0.00 27 1012.8
20260502161251 84 248 0.9 8.7 0.00 0.00 0.00 27 1012.8
20260502160753 83 203 0.9 8.7 0.00 0.00 0.00 30 1012.8
20260502160250 83 270 0.9 4.3 0.00 0.00 0.00 27 1012.8
20260502152240 79 45 0.9 5.2 0.00 0.00 0.00 32 1012.8
20260502151734 78 0 0.9 7.0 0.00 0.00 0.00 34 1012.8
20260502151232 77 338 0.9 7.0 0.00 0.00 0.00 34 1012.5
20260502150731 76 293 0.9 5.2 0.00 0.00 0.00 35 1012.5
20260502150231 76 225 0.0 5.2 0.00 0.00 0.00 35 1012.5
20260502130655 65 68 0.0 1.7 0.00 0.00 0.00 43 1011.1
20260502130156 65 45 0.0 0.9 0.00 0.00 0.00 43 1011.1
20260502123655 66 45 0.0 0.0 0.00 0.00 0.00 41 1010.8
20260502123155 66 23 0.0 0.0 0.00 0.00 0.00 41 1010.8
20260502122655 66 113 0.0 0.0 0.00 0.00 0.00 41 1010.8
20260502122155 66 113 0.0 0.0 0.00 0.00 0.00 40 1010.5
20260502121656 66 90 0.0 0.0 0.00 0.00 0.00 40 1010.8
20260502121154 66 45 0.0 0.0 0.00 0.00 0.00 40 1010.5
20260502120656 67 45 0.0 0.0 0.00 0.00 0.00 40 1010.5
20260502120425 67 45 0.0 0.0 0.00 0.00 0.00 39 1010.5
20260502115924 67 45 0.0 0.0 0.00 0.00 0.00 39 1010.5
20260502115155 67 45 0.0 0.0 0.00 0.00 0.00 39 1010.5
20260502114655 67 23 0.0 0.0 0.00 0.00 0.00 37 1010.5
20260502114156 67 23 0.0 0.0 0.00 0.00 0.00 37 1010.5
20260502113655 67 45 0.0 0.0 0.00 0.00 0.00 37 1010.5
20260502113155 67 45 0.0 0.0 0.00 0.00 0.00 37 1010.5
20260502112655 67 113 0.0 0.0 0.00 0.00 0.00 37 1010.5
20260502112155 67 90 0.0 0.0 0.00 0.00 0.00 37 1010.0
20260502111926 67 135 0.0 0.0 0.00 0.00 0.00 37 1010.0
20260502111154 68 45 0.0 0.0 0.00 0.00 0.00 37 1010.0
20260502110654 68 45 0.0 0.0 0.00 0.00 0.00 37 1010.0
20260502110155 68 45 0.0 0.0 0.00 0.00 0.00 37 1010.0
20260502105656 68 45 0.0 0.0 0.00 0.00 0.00 37 1010.0
20260502105156 68 180 0.0 0.0 0.00 0.00 0.00 37 1010.0
20260502104656 68 180 0.0 0.0 0.00 0.00 0.00 37 1010.0
20260502104426 68 45 0.0 0.0 0.00 0.00 0.00 37 1010.0
20260502103654 69 45 0.0 0.0 0.00 0.00 0.00 35 1010.0
20260502103153 69 45 0.0 0.0 0.00 0.00 0.00 35 1010.0
20260502102654 69 45 0.0 0.0 0.00 0.00 0.00 35 1010.0
20260502102154 69 23 0.0 0.0 0.00 0.00 0.00 35 1010.0
20260502101655 69 180 0.0 0.0 0.00 0.00 0.00 34 1009.7
20260502101155 69 158 0.0 0.0 0.00 0.00 0.00 35 1009.7
20260502100655 70 225 0.0 0.0 0.00 0.00 0.00 34 1009.7
20260502100156 70 180 0.0 0.0 0.00 0.00 0.00 34 1009.7
20260502091155 71 270 0.0 0.0 0.00 0.00 0.00 29 1009.3
20260502090925 71 113 0.0 0.0 0.00 0.00 0.00 30 1009.3
20260502090154 71 248 0.0 0.0 0.00 0.00 0.00 29 1009.3
20260502071117 73 135 0.0 0.0 0.00 0.00 0.00 30 1009.3
20260502070851 73 135 0.0 0.0 0.00 0.00 0.00 31 1009.3
20260502070118 73 113 0.0 0.0 0.00 0.00 0.00 30 1009.0
20260502065619 73 135 0.0 0.0 0.00 0.00 0.00 30 1009.0
20260502065117 73 135 0.0 0.0 0.00 0.00 0.00 30 1009.3
20260502064616 73 158 0.0 0.0 0.00 0.00 0.00 30 1009.3
20260502064116 74 90 0.0 0.0 0.00 0.00 0.00 30 1009.0
20260502063616 74 90 0.0 0.0 0.00 0.00 0.00 30 1009.3
20260502063117 74 113 0.0 0.0 0.00 0.00 0.00 31 1009.0
20260502062617 74 90 0.0 0.0 0.00 0.00 0.00 31 1008.7
20260502062118 74 90 0.0 0.0 0.00 0.00 0.00 30 1008.7
20260502061617 74 113 0.0 0.0 0.00 0.00 0.00 30 1008.7
20260502061118 75 113 0.0 0.0 0.00 0.00 0.00 30 1008.7
20260502060617 75 90 0.0 0.0 0.00 0.00 0.00 30 1008.7
20260502060117 75 90 0.0 0.0 0.00 0.00 0.00 30 1008.7
20260502055617 75 68 0.0 0.0 0.00 0.00 0.00 30 1008.7
20260502055117 76 68 0.0 0.0 0.00 0.00 0.00 29 1008.7
20260502054847 76 90 0.0 0.0 0.00 0.00 0.00 30 1008.7
20260502054116 76 113 0.0 0.0 0.00 0.00 0.00 29 1008.7
20260502053600 76 113 0.0 0.0 0.00 0.00 0.00 29 1008.7
20260502053329 76 135 0.0 0.0 0.00 0.00 0.00 30 1009.0
20260502052831 76 135 0.0 0.0 0.00 0.00 0.00 30 1008.7
20260502052059 77 135 0.0 0.0 0.00 0.00 0.00 29 1008.7
20260502051559 77 135 0.0 0.0 0.00 0.00 0.00 30 1008.7
20260502051058 77 135 0.0 0.0 0.00 0.00 0.00 30 1008.7
20260502050829 77 135 0.0 0.0 0.00 0.00 0.00 30 1008.7
20260502050055 77 135 0.0 0.0 0.00 0.00 0.00 27 1008.3
20260502045040 78 158 0.0 0.0 0.00 0.00 0.00 27 1008.3
20260502044540 78 158 0.0 0.0 0.00 0.00 0.00 27 1008.3
20260502044040 78 180 0.0 0.0 0.00 0.00 0.00 25 1008.3
20260502043540 78 180 0.0 0.0 0.00 0.00 0.00 25 1008.3
20260502043040 79 180 0.0 0.0 0.00 0.00 0.00 27 1008.7
20260502042538 79 180 0.0 0.0 0.00 0.00 0.00 25 1008.3
20260502042310 79 180 0.0 0.0 0.00 0.00 0.00 25 1008.3
20260502041539 79 180 0.0 0.0 0.00 0.00 0.00 25 1008.3
20260502041038 79 180 0.0 0.0 0.00 0.00 0.00 25 1008.0
20260502040540 80 180 0.0 0.0 0.00 0.00 0.00 22 1008.0
20260502040040 80 135 0.0 0.0 0.00 0.00 0.00 25 1008.0
20260502035540 80 135 0.0 0.0 0.00 0.00 0.00 24 1008.0
20260502035040 81 135 0.0 0.0 0.00 0.00 0.00 25 1008.0
20260502034540 81 248 0.0 0.0 0.00 0.00 0.00 24 1008.0
20260502034310 81 315 0.0 0.0 0.00 0.00 0.00 25 1008.0
20260502033539 82 315 0.0 0.0 0.00 0.00 0.00 24 1007.6
20260502033039 82 0 0.0 0.0 0.00 0.00 0.00 24 1007.6
20260502032538 82 0 0.0 0.0 0.00 0.00 0.00 22 1007.6
20260502032040 82 338 0.0 0.0 0.00 0.00 0.00 22 1007.6
20260502031540 82 315 0.0 0.0 0.00 0.00 0.00 20 1007.3
20260502031312 83 90 0.0 0.0 0.00 0.00 0.00 22 1007.3
20260502030540 83 90 0.0 0.0 0.00 0.00 0.00 22 1007.3
20260502030040 83 90 0.0 0.0 0.00 0.00 0.00 20 1007.3
20260502025812 84 23 0.0 0.0 0.00 0.00 0.00 20 1006.9
20260502025032 84 23 0.0 0.0 0.00 0.00 0.00 22 1006.9
20260502024521 84 23 0.0 0.0 0.00 0.00 0.00 20 1006.9
20260502024020 85 23 0.0 0.9 0.00 0.00 0.00 20 1006.9
20260502023750 85 0 0.0 1.7 0.00 0.00 0.00 20 1006.9
20260502023020 85 315 0.0 2.6 0.00 0.00 0.00 19 1006.5
20260502022522 85 293 0.0 2.6 0.00 0.00 0.00 20 1006.9
20260502022021 86 338 0.0 3.5 0.00 0.00 0.00 20 1006.9
20260502021521 86 270 0.0 3.5 0.00 0.00 0.00 19 1006.5
20260502021021 86 293 0.0 2.6 0.00 0.00 0.00 19 1006.5
20260502020520 87 225 0.0 2.6 0.00 0.00 0.00 19 1006.5
20260502020021 87 315 0.0 4.3 0.00 0.00 0.00 19 1006.5
20260502015517 87 270 0.9 4.3 0.00 0.00 0.00 19 1006.5
20260502015002 87 0 0.9 5.2 0.00 0.00 0.00 17 1006.5
20260502014503 88 338 0.9 5.2 0.00 0.00 0.00 19 1006.5